This is the latest recevied weather packets stored in our database for station/object VK5GR-12. If no packets are shown the sender has not sent any weather packets the latest 10 day(s).
| Time | Temp. | Humidity | Pressure | Rain* | Wind** | Luminosity | Snow |
|---|---|---|---|---|---|---|---|
| 1788159027 | 22.78° C | 40% | 1025.4 hPa | 0 mm | - | 158 W/m² | - |
| 1788158125 | 22.22° C | 39% | 1025.4 hPa | 0 mm | - | 194 W/m² | - |
| 1788157226 | 22.78° C | 36% | 1025.7 hPa | 0 mm | - | 235 W/m² | - |
| 1788156326 | 22.78° C | 35% | 1025.8 hPa | 0 mm | - | 273 W/m² | - |
| 1788155423 | 22.78° C | 34% | 1025.7 hPa | 0 mm | - | 308 W/m² | - |
| 1788154520 | 23.33° C | 36% | 1025.9 hPa | 0 mm | - | 345 W/m² | - |
| 1788153621 | 22.78° C | 38% | 1026.1 hPa | 0 mm | - | 382 W/m² | - |
| 1788152718 | 22.78° C | 39% | 1026.3 hPa | 0 mm | - | 413 W/m² | - |
| 1788151817 | 22.78° C | 34% | 1026.3 hPa | 0 mm | - | 441 W/m² | - |
| 1788150913 | 23.33° C | 36% | 1026.7 hPa | 0 mm | - | 466 W/m² | - |
| 1788150009 | 22.22° C | 38% | 1027 hPa | 0 mm | - | 488 W/m² | - |
| 1788149104 | 23.33° C | 39% | 1027.3 hPa | 0 mm | - | 510 W/m² | - |
| 1788148202 | 22.78° C | 41% | 1027.7 hPa | 0 mm | - | 527 W/m² | - |
| 1788147300 | 22.78° C | 41% | 1027.9 hPa | 0 mm | - | 543 W/m² | - |
| 1788146396 | 22.78° C | 41% | 1028.3 hPa | 0 mm | - | 552 W/m² | - |
| 1788145494 | 21.67° C | 40% | 1028.5 hPa | 0 mm | - | 558 W/m² | - |
| 1788144593 | 21.67° C | 39% | 1028.8 hPa | 0 mm | - | 559 W/m² | - |
| 1788143692 | 21.11° C | 43% | 1029 hPa | 0 mm | - | 560 W/m² | - |
| 1788142787 | 21.11° C | 51% | 1029.4 hPa | 0 mm | - | 555 W/m² | - |
| 1788141884 | 19.44° C | 56% | 1029.5 hPa | 0 mm | - | 546 W/m² | - |
| 1788140979 | 19.44° C | 56% | 1029.7 hPa | 0 mm | - | 536 W/m² | - |
| 1788140078 | 19.44° C | 56% | 1030.1 hPa | 0 mm | - | 523 W/m² | - |
| 1788139172 | 18.89° C | 58% | 1030.1 hPa | 0 mm | - | 508 W/m² | - |
| 1788138270 | 18.33° C | 58% | 1030 hPa | 0 mm | - | 486 W/m² | - |
| 1788137366 | 17.78° C | 63% | 1030.3 hPa | 0 mm | - | 462 W/m² | - |
* Rain latest hour (hover to see other rain measurements)
** Current wind speed in m/s (hover to see current wind gust speed)